Regional Weather Roundup
Issued by NWS Cleveland, OH

Home | Current Version | Previous Version | Text Only | Print | Product List | Glossary Off
Versions: 1 2 3 4 5 6 7 8 9 10 11 12 13 14 15 16 17 18 19 20 21 22 23 24 25 26 27 28 29 30 31 32 33 34 35 36 37 38 39 40 41 42 43 44 45 46 47 48 49 50

088
ASUS41 KCLE 250502
RWRCLE
OHIO REGIONAL WEATHER ROUNDUP
NATIONAL WEATHER SERVICE CLEVELAND, OH
100 AM EDT THU MAY 25 2017

NOTE: "FAIR" INDICATES FEW OR NO CLOUDS BELOW 12,000 FEET WITH NO
SIGNIFICANT WEATHER AND/OR OBSTRUCTIONS TO VISIBILITY.

OHZ001>008-015>018-024>027-034-035-043-044-250600-
   NORTHWEST OHIO

CITY           SKY/WX    TMP DP  RH WIND       PRES   REMARKS
DEFIANCE       CLOUDY    59  57  93 NE9       29.41F
FINDLAY        CLOUDY    64  58  80 E9        29.39F
TOLEDO EXPRESS CLOUDY    59  59 100 NE12      29.43F
TOLEDO EXEC    CLOUDY    60  59  96 NE12      29.44F
LIMA           CLOUDY    62  61  96 E12       29.37S
$$

OHZ009>014-019>023-028>033-038-089-250600-
   NORTHEAST OHIO

CITY           SKY/WX    TMP DP  RH WIND       PRES   REMARKS
CLE-HOPKINS    CLOUDY    62  57  83 SE10      29.49F
CLE-LAKEFRONT  CLOUDY    62  55  77 SE8       29.47S
CUY CO. ARPT   NOT AVBL
LORAIN-ELYRIA    N/A    N/A N/A N/A MISG      29.46F
ASHTABULA      CLOUDY    58  57  97 SE8       29.54F
AKRON-CANTON   CLOUDY    60  54  80 SE15      29.48F
WOOSTER        CLOUDY    59  56  89 SE10      29.47F
MANSFIELD      MOCLDY    59  58  96 E13       29.45S
YOUNGSTOWN     CLOUDY    58  54  86 SE15      29.53F
$$

OHZ042-051>053-060>062-070>072-077>081-250600-
  SOUTHWEST OHIO

CITY           SKY/WX    TMP DP  RH WIND       PRES   REMARKS
CINC-COVINGTON LGT RAIN  59  58  96 W8        29.40R
CINC-LUNKEN    CLOUDY    61  60  97 W7        29.39R
HAMILTON       LGT RAIN  60  24  25 W8        29.39R
DAYTON         LGT RAIN  59  58  96 S3        29.37R
WRIGHT-PAT AFB NOT AVBL
DAYTON GENERAL CLOUDY    60  59  96 S5        29.36S
WILMINGTON     CLOUDY    59  59 100 SW7       29.37R
$$

OHZ036-037-039>041-045>050-054>059-063>069-073>076-082>088-250600-
  CENTRAL AND SOUTHEAST OHIO

CITY           SKY/WX    TMP DP  RH WIND       PRES   REMARKS
COLUMBUS       CLOUDY    65  59  81 SE8       29.39S
OSU AIRPORT    CLOUDY    64  60  87 SE8       29.39S
BOLTON FIELD   NOT AVBL
RICKENBACK AFB NOT AVBL
NEWARK         CLOUDY    64  57  78 E8        29.41F
MARION         CLOUDY    63  58  83 SE13      29.41F
LANCASTER      PTCLDY    63  58  83 SE12G18   29.40F
ZANESVILLE     LGT RAIN  62  58  86 SE10      29.44R
NEW PHILLY     NOT AVBL
$$




USA.gov is the U.S. government's official web portal to all federal, state and local government web resources and services.